contact:dominique.lefevre@mio.osupytheas.fr, maurice.libes@osupytheas.fr, didier.mallarino@osupytheas.fr
Project:EMSO http://www.emso-fr.org/EMSO-France
Depth: 2436.0 m
Title:EMSO Ligure Ouest : Data MII capteur AQUADOPP
Date,Latitude,Longitude,X_East,Y_North,Z_Up,Amplitude_X,Amplitude_Y,Amplitude_Z,Batterie,SoundSpeed,Heading,Pitch,Roll,Pressure,TIS,Speed,Direction
, degrees North, degrees East, m.s-1, m.s-1,m.s-1, 1, 1, 1, Volt, m.s-1, degree, degree, degree, dbar, degree_C, m.s-1, degree
2023-03-16T00:04:03,42.805,6.029,-0.036,-0.013,-0.043,107.0,105.0,105.0,13.4,1505.2,342.5,-0.8,1.8,2471.387,13.28,0.038,250.1
2023-03-16T00:07:03,42.805,6.029,-0.068,-0.013,-0.027,107.0,105.0,105.0,13.3,1505.2,326.8,-0.8,1.8,2471.364,13.28,0.069,259.2
2023-03-16T00:10:03,42.805,6.029,-0.037,-0.039,-0.036,105.0,105.0,104.0,13.3,1505.2,324.8,-0.8,1.8,2471.346,13.28,0.053,223.5
2023-03-16T00:13:03,42.805,6.029,-0.059,-0.013,-0.074,106.0,106.0,104.0,13.4,1505.2,338.8,-0.8,1.9,2471.334,13.29,0.06,257.6
2023-03-16T00:16:03,42.805,6.029,-0.065,-0.008,-0.043,107.0,104.0,104.0,13.4,1505.2,330.5,-0.8,1.8,2471.308,13.29,0.065,263.0
2023-03-16T00:19:03,42.805,6.029,-0.055,-0.026,-0.041,105.0,105.0,104.0,13.4,1505.2,328.8,-0.8,1.8,2471.314,13.29,0.06,244.7
2023-03-16T00:22:03,42.805,6.029,-0.066,-0.008,-0.016,106.0,104.0,104.0,13.3,1505.2,340.5,-0.8,1.8,2471.352,13.29,0.066,263.1
2023-03-16T00:25:03,42.805,6.029,-0.064,-0.002,-0.054,106.0,104.0,103.0,13.4,1505.2,332.5,-0.8,1.8,2471.355,13.29,0.064,268.2
2023-03-16T00:28:03,42.805,6.029,-0.049,-0.006,-0.049,105.0,105.0,104.0,13.4,1505.2,334.9,-0.8,1.8,2471.361,13.29,0.049,263.0
2023-03-16T00:31:03,42.805,6.029,-0.054,-0.031,-0.029,106.0,106.0,104.0,13.3,1505.2,327.0,-0.8,1.8,2471.348,13.29,0.062,240.1
2023-03-16T00:34:03,42.805,6.029,-0.044,-0.018,-0.048,106.0,105.0,104.0,13.4,1505.2,322.4,-0.8,1.8,2471.341,13.29,0.047,247.8
2023-03-16T00:37:03,42.805,6.029,-0.071,-0.014,-0.047,105.0,105.0,104.0,13.4,1505.2,330.7,-0.7,1.8,2471.352,13.29,0.072,258.8
2023-03-16T00:40:03,42.805,6.029,-0.045,0.006,-0.023,106.0,105.0,105.0,13.4,1505.2,329.7,-0.8,1.8,2471.326,13.29,0.045,277.6
2023-03-16T00:43:03,42.805,6.029,-0.039,0.039,-0.021,106.0,107.0,104.0,13.3,1505.2,339.5,-0.8,1.8,2471.354,13.29,0.055,315.0
2023-03-16T00:46:03,42.805,6.029,-0.05,-0.005,-0.016,106.0,106.0,104.0,13.4,1505.2,335.6,-0.8,1.8,2471.333,13.29,0.05,264.3
2023-03-16T00:49:03,42.805,6.029,-0.057,0.023,-0.031,106.0,103.0,104.0,13.4,1505.2,329.3,-0.7,1.8,2471.334,13.29,0.061,292.0
2023-03-16T00:52:03,42.805,6.029,-0.044,0.001,0.005,106.0,105.0,104.0,13.4,1505.2,331.3,-0.7,1.8,2471.358,13.29,0.044,271.3
2023-03-16T00:55:03,42.805,6.029,-0.041,-0.004,-0.032,107.0,104.0,104.0,13.4,1505.2,328.6,-0.8,1.8,2471.362,13.29,0.041,264.4
2023-03-16T00:58:03,42.805,6.029,-0.037,0.026,-0.029,106.0,105.0,104.0,13.4,1505.2,342.8,-0.8,1.8,2471.34,13.29,0.045,305.1
2023-03-16T01:01:03,42.805,6.029,-0.06,0.0,-0.026,106.0,105.0,104.0,13.4,1505.2,329.7,-0.8,1.8,2471.331,13.29,0.06,270.0
2023-03-16T01:04:03,42.805,6.029,-0.07,0.018,-0.039,108.0,108.0,106.0,13.4,1505.2,334.8,-0.8,1.8,2471.353,13.29,0.072,284.4
2023-03-16T01:07:04,42.805,6.029,-0.041,-0.016,-0.035,106.0,104.0,103.0,13.4,1505.2,318.2,-0.7,1.8,2471.287,13.29,0.044,248.7
2023-03-16T01:10:03,42.805,6.029,-0.05,0.017,-0.028,106.0,105.0,103.0,13.3,1505.2,331.6,-0.8,1.8,2471.342,13.29,0.052,288.8
2023-03-16T01:13:03,42.805,6.029,-0.051,-0.007,-0.032,106.0,105.0,103.0,13.4,1505.2,317.9,-0.8,1.8,2471.326,13.29,0.051,262.2
2023-03-16T01:16:03,42.805,6.029,-0.044,-0.013,0.008,105.0,105.0,104.0,13.3,1505.2,334.8,-0.8,1.8,2471.328,13.29,0.045,253.5
2023-03-16T01:19:03,42.805,6.029,-0.037,-0.011,-0.031,108.0,106.0,103.0,13.4,1505.2,316.1,-0.7,1.8,2471.335,13.29,0.038,253.4
2023-03-16T01:22:03,42.805,6.029,-0.073,-0.011,-0.032,106.0,105.0,104.0,13.4,1505.2,321.2,-0.7,1.8,2471.364,13.29,0.073,261.4
2023-03-16T01:25:03,42.805,6.029,-0.052,0.001,-0.039,106.0,104.0,105.0,13.4,1505.2,321.7,-0.7,1.8,2471.331,13.29,0.052,271.1
2023-03-16T01:28:03,42.805,6.029,-0.046,0.025,-0.014,106.0,105.0,104.0,13.4,1505.2,338.7,-0.7,1.8,2471.352,13.29,0.052,298.5
2023-03-16T01:31:03,42.805,6.029,-0.054,-0.011,-0.041,107.0,104.0,104.0,13.4,1505.2,332.0,-0.8,1.8,2471.362,13.29,0.055,258.5
2023-03-16T01:34:03,42.805,6.029,-0.05,0.005,-0.029,107.0,105.0,104.0,13.4,1505.2,323.6,-0.7,1.8,2471.324,13.29,0.05,275.7
2023-03-16T01:37:03,42.805,6.029,-0.053,-0.014,-0.025,106.0,105.0,104.0,13.4,1505.2,327.8,-0.8,1.8,2471.336,13.29,0.054,255.2
2023-03-16T01:40:03,42.805,6.029,-0.026,-0.024,-0.01,106.0,106.0,105.0,13.3,1505.2,316.1,-0.8,1.8,2471.387,13.29,0.035,227.3
2023-03-16T01:43:03,42.805,6.029,-0.052,-0.003,-0.017,106.0,105.0,105.0,13.3,1505.2,328.3,-0.8,1.8,2471.361,13.29,0.052,266.7
2023-03-16T01:46:03,42.805,6.029,-0.034,-0.005,-0.036,104.0,106.0,105.0,13.4,1505.2,323.3,-0.8,1.9,2471.397,13.29,0.034,261.6
2023-03-16T01:49:03,42.805,6.029,-0.035,0.005,-0.034,105.0,106.0,105.0,13.4,1505.2,339.9,-0.8,1.8,2471.343,13.29,0.035,278.1
2023-03-16T01:52:03,42.805,6.029,-0.061,0.01,-0.035,107.0,106.0,107.0,13.4,1505.2,331.4,-0.8,1.8,2471.35,13.29,0.061,279.3
2023-03-16T01:55:03,42.805,6.029,-0.056,-0.001,-0.019,106.0,105.0,103.0,13.4,1505.2,321.3,-0.8,1.8,2471.346,13.29,0.056,269.0
2023-03-16T01:58:03,42.805,6.029,-0.048,0.016,-0.019,105.0,105.0,104.0,13.3,1505.2,331.0,-0.8,1.8,2471.33,13.29,0.05,288.4
2023-03-16T02:04:03,42.805,6.029,-0.041,0.002,-0.019,107.0,104.0,103.0,13.3,1505.2,330.1,-0.8,1.8,2471.414,13.28,0.041,272.8
2023-03-16T02:07:03,42.805,6.029,-0.045,-0.001,-0.045,105.0,105.0,103.0,13.4,1505.2,340.0,-0.7,1.8,2471.379,13.28,0.045,268.7
2023-03-16T02:10:03,42.805,6.029,-0.058,-0.015,-0.033,108.0,106.0,105.0,13.4,1505.2,318.7,-0.7,1.8,2471.42,13.29,0.059,255.5
2023-03-16T02:13:03,42.805,6.029,-0.046,0.0,-0.02,105.0,105.0,104.0,13.4,1505.2,332.6,-0.7,1.8,2471.404,13.29,0.046,270.0
2023-03-16T02:16:03,42.805,6.029,-0.041,-0.007,-0.045,105.0,104.0,104.0,13.4,1505.2,317.5,-0.8,1.8,2471.371,13.29,0.041,260.3
2023-03-16T02:19:03,42.805,6.029,-0.032,0.023,-0.032,107.0,105.0,104.0,13.4,1505.2,342.8,-0.8,1.8,2471.414,13.29,0.039,305.7
2023-03-16T02:22:03,42.805,6.029,-0.04,0.027,-0.04,106.0,105.0,104.0,13.4,1505.2,333.4,-0.7,1.8,2471.37,13.29,0.048,304.0
2023-03-16T02:25:03,42.805,6.029,-0.052,-0.006,-0.001,105.0,105.0,104.0,13.4,1505.2,326.8,-0.8,1.8,2471.326,13.29,0.052,263.4
2023-03-16T02:28:03,42.805,6.029,-0.034,0.022,-0.005,106.0,104.0,104.0,13.4,1505.2,326.5,-0.7,1.8,2471.34,13.29,0.04,302.9
2023-03-16T02:31:03,42.805,6.029,-0.048,-0.002,-0.025,106.0,104.0,104.0,13.4,1505.2,329.3,-0.7,1.8,2471.368,13.29,0.048,267.6
2023-03-16T02:34:03,42.805,6.029,-0.057,0.021,-0.01,103.0,104.0,103.0,13.4,1505.2,342.8,-0.8,1.8,2471.41,13.29,0.06,290.2
2023-03-16T02:37:03,42.805,6.029,-0.048,0.0,-0.05,105.0,103.0,105.0,13.4,1505.2,340.0,-0.8,1.8,2471.359,13.29,0.048,270.0
2023-03-16T02:40:03,42.805,6.029,-0.049,-0.009,-0.028,106.0,105.0,104.0,13.4,1505.2,333.0,-0.8,1.8,2471.35,13.29,0.049,259.6
2023-03-16T02:43:03,42.805,6.029,-0.043,0.02,0.0,106.0,105.0,103.0,13.4,1505.2,329.3,-0.7,1.8,2471.38,13.29,0.047,294.9
2023-03-16T02:46:03,42.805,6.029,-0.051,0.013,-0.037,106.0,103.0,104.0,13.3,1505.2,332.5,-0.8,1.8,2471.355,13.29,0.052,284.3
2023-03-16T02:49:03,42.805,6.029,-0.048,0.01,-0.035,104.0,106.0,104.0,13.4,1505.2,328.8,-0.8,1.8,2471.35,13.29,0.049,281.8
2023-03-16T02:52:02,42.805,6.029,-0.054,0.014,-0.026,104.0,105.0,104.0,13.3,1505.2,339.9,-0.8,1.8,2471.374,13.29,0.055,284.5
2023-03-16T02:55:03,42.805,6.029,-0.046,0.006,-0.051,106.0,106.0,103.0,13.4,1505.2,328.5,-0.8,1.9,2471.352,13.29,0.046,277.4
2023-03-16T02:58:02,42.805,6.029,-0.05,0.005,-0.014,106.0,105.0,104.0,13.3,1505.2,339.2,-0.8,1.8,2471.381,13.29,0.05,275.7
2023-03-16T03:04:02,42.805,6.029,-0.057,0.009,-0.021,106.0,105.0,105.0,13.4,1505.2,323.6,-0.8,1.8,2471.416,13.28,0.057,279.0
2023-03-16T03:07:02,42.805,6.029,-0.053,0.001,-0.018,107.0,105.0,103.0,13.4,1505.2,324.6,-0.8,1.8,2471.418,13.28,0.053,271.1
2023-03-16T03:10:03,42.805,6.029,-0.046,0.024,-0.026,106.0,104.0,104.0,13.3,1505.2,326.7,-0.8,1.8,2471.42,13.29,0.051,297.6
2023-03-16T03:13:03,42.805,6.029,-0.056,-0.003,-0.02,106.0,104.0,104.0,13.4,1505.2,323.8,-0.7,1.8,2471.41,13.29,0.056,266.9
2023-03-16T03:16:03,42.805,6.029,-0.042,0.017,-0.021,107.0,103.0,103.0,13.3,1505.2,335.7,-0.7,1.8,2471.373,13.29,0.045,292.0
2023-03-16T03:19:03,42.805,6.029,-0.054,0.004,0.001,106.0,106.0,103.0,13.3,1505.2,327.7,-0.8,1.8,2471.406,13.29,0.054,274.2
2023-03-16T03:22:02,42.805,6.029,-0.064,0.018,0.0,105.0,103.0,104.0,13.4,1505.2,333.4,-0.7,1.8,2471.356,13.29,0.066,285.7
2023-03-16T03:25:03,42.805,6.029,-0.043,-0.003,-0.035,106.0,105.0,103.0,13.4,1505.2,323.8,-0.8,1.8,2471.378,13.29,0.043,266.0
2023-03-16T03:28:03,42.805,6.029,-0.069,0.011,-0.02,106.0,104.0,104.0,13.4,1505.2,321.8,-0.8,1.8,2471.402,13.29,0.069,279.1
2023-03-16T03:31:03,42.805,6.029,-0.06,0.025,-0.034,105.0,105.0,104.0,13.3,1505.2,329.8,-0.8,1.8,2471.374,13.29,0.064,292.6
2023-03-16T03:34:03,42.805,6.029,-0.063,0.024,-0.038,107.0,103.0,104.0,13.4,1505.2,341.9,-0.8,1.8,2471.38,13.29,0.067,290.9
2023-03-16T03:37:02,42.805,6.029,-0.051,0.0,-0.02,106.0,106.0,104.0,13.4,1505.2,328.3,-0.8,1.8,2471.385,13.29,0.051,270.0
2023-03-16T03:40:03,42.805,6.029,-0.048,0.012,-0.007,105.0,104.0,104.0,13.3,1505.2,340.9,-0.7,1.8,2471.386,13.29,0.049,284.0
2023-03-16T03:43:03,42.805,6.029,-0.062,0.021,-0.005,106.0,105.0,103.0,13.4,1505.2,330.6,-0.8,1.8,2471.369,13.29,0.065,288.7
2023-03-16T03:46:03,42.805,6.029,-0.048,0.011,-0.042,106.0,104.0,103.0,13.4,1505.2,330.2,-0.7,1.9,2471.353,13.29,0.049,282.9
2023-03-16T03:49:03,42.805,6.029,-0.061,-0.009,-0.032,105.0,105.0,104.0,13.3,1505.2,317.3,-0.8,1.8,2471.375,13.29,0.061,261.6
2023-03-16T03:52:03,42.805,6.029,-0.044,0.019,-0.007,106.0,104.0,103.0,13.3,1505.2,330.8,-0.7,1.8,2471.397,13.29,0.047,293.4
2023-03-16T03:55:03,42.805,6.029,-0.031,0.023,-0.003,105.0,105.0,104.0,13.4,1505.2,339.9,-0.8,1.8,2471.411,13.29,0.038,306.6
2023-03-16T03:58:03,42.805,6.029,-0.045,0.002,-0.032,107.0,106.0,105.0,13.3,1505.2,323.3,-0.8,1.8,2471.367,13.29,0.045,272.5
2023-03-16T04:04:02,42.805,6.029,-0.061,0.031,-0.014,106.0,105.0,105.0,13.4,1505.2,324.8,-0.8,1.8,2471.396,13.28,0.068,296.9
2023-03-16T04:07:03,42.805,6.029,-0.065,0.0,-0.037,105.0,105.0,104.0,13.3,1505.2,317.8,-0.8,1.8,2471.431,13.28,0.064,270.0
2023-03-16T04:10:03,42.805,6.029,-0.064,0.018,-0.012,105.0,107.0,103.0,13.3,1505.2,332.1,-0.8,1.8,2471.438,13.28,0.066,285.7
2023-03-16T04:13:03,42.805,6.029,-0.054,0.025,0.003,107.0,106.0,103.0,13.4,1505.2,324.5,-0.8,1.8,2471.423,13.29,0.059,294.8
2023-03-16T04:16:03,42.805,6.029,-0.044,0.005,-0.01,105.0,104.0,104.0,13.3,1505.2,315.5,-0.7,1.8,2471.375,13.29,0.044,276.5
2023-03-16T04:19:03,42.805,6.029,-0.039,-0.011,-0.022,105.0,105.0,104.0,13.4,1505.2,321.0,-0.8,1.8,2471.39,13.29,0.04,254.3
2023-03-16T04:22:03,42.805,6.029,-0.049,-0.002,0.0,105.0,106.0,104.0,13.4,1505.2,326.5,-0.7,1.8,2471.334,13.29,0.049,267.7
2023-03-16T04:25:03,42.805,6.029,-0.086,0.019,-0.008,105.0,104.0,104.0,13.3,1505.2,326.8,-0.7,1.8,2471.374,13.29,0.088,282.5
2023-03-16T04:28:03,42.805,6.029,-0.052,-0.017,-0.041,105.0,105.0,104.0,13.3,1505.2,323.1,-0.7,1.8,2471.37,13.29,0.054,251.9
2023-03-16T04:31:03,42.805,6.029,-0.062,-0.012,-0.043,104.0,105.0,104.0,13.3,1505.2,317.8,-0.8,1.8,2471.371,13.29,0.063,259.0
2023-03-16T04:34:03,42.805,6.029,-0.059,0.019,-0.039,106.0,105.0,104.0,13.4,1505.2,333.0,-0.8,1.8,2471.389,13.29,0.061,287.8
2023-03-16T04:37:03,42.805,6.029,-0.053,0.043,-0.047,105.0,105.0,103.0,13.4,1505.2,342.8,-0.8,1.8,2471.344,13.29,0.068,309.1
2023-03-16T04:40:03,42.805,6.029,-0.053,-0.01,-0.014,105.0,105.0,104.0,13.4,1505.2,334.3,-0.8,1.8,2471.363,13.29,0.053,259.3
2023-03-16T04:43:03,42.805,6.029,-0.054,0.03,-0.045,106.0,105.0,104.0,13.4,1505.2,339.5,-0.8,1.8,2471.405,13.29,0.061,299.1
2023-03-16T04:46:03,42.805,6.029,-0.037,-0.008,-0.042,105.0,104.0,104.0,13.4,1505.2,325.0,-0.8,1.8,2471.362,13.29,0.037,257.8
2023-03-16T04:49:03,42.805,6.029,-0.036,0.027,0.019,105.0,104.0,104.0,13.4,1505.2,341.5,-0.7,1.8,2471.384,13.29,0.045,306.9
2023-03-16T04:52:03,42.805,6.029,-0.045,0.0,-0.002,106.0,104.0,104.0,13.4,1505.2,318.2,-0.8,1.8,2471.38,13.29,0.045,270.0
2023-03-16T04:55:03,42.805,6.029,-0.067,-0.017,-0.033,106.0,105.0,103.0,13.3,1505.2,338.3,-0.8,1.8,2471.343,13.29,0.069,255.8
2023-03-16T04:58:03,42.805,6.029,-0.036,-0.005,-0.039,105.0,105.0,103.0,13.4,1505.2,332.9,-0.7,1.8,2471.344,13.29,0.036,262.1
2023-03-16T05:04:03,42.805,6.029,-0.065,-0.028,-0.036,105.0,105.0,103.0,13.3,1505.2,322.4,-0.8,1.8,2471.432,13.28,0.07,246.7
2023-03-16T05:07:03,42.805,6.029,-0.063,0.0,-0.022,106.0,104.0,104.0,13.3,1505.2,323.6,-0.8,1.8,2471.33,13.28,0.062,270.0
2023-03-16T05:10:03,42.805,6.029,-0.037,-0.007,-0.015,106.0,105.0,103.0,13.3,1505.2,325.4,-0.8,1.8,2471.409,13.28,0.037,259.3
2023-03-16T05:13:03,42.805,6.029,-0.066,0.014,-0.033,105.0,104.0,104.0,13.4,1505.2,337.8,-0.8,1.8,2471.376,13.29,0.067,282.0
2023-03-16T05:16:03,42.805,6.029,-0.045,-0.008,-0.017,105.0,105.0,103.0,13.4,1505.2,319.4,-0.8,1.8,2471.382,13.29,0.045,259.9
2023-03-16T05:19:03,42.805,6.029,-0.04,0.006,0.0,106.0,104.0,104.0,13.3,1505.2,336.9,-0.8,1.8,2471.363,13.29,0.04,278.5
2023-03-16T05:22:03,42.805,6.029,-0.037,0.007,-0.014,105.0,105.0,104.0,13.3,1505.2,321.2,-0.8,1.8,2471.401,13.29,0.037,280.7
2023-03-16T05:25:03,42.805,6.029,-0.059,-0.005,-0.025,105.0,104.0,104.0,13.4,1505.2,323.8,-0.7,1.8,2471.357,13.29,0.059,265.2
2023-03-16T05:28:03,42.805,6.029,-0.048,0.005,-0.032,105.0,104.0,104.0,13.4,1505.2,323.4,-0.7,1.9,2471.329,13.29,0.048,275.9
2023-03-16T05:31:03,42.805,6.029,-0.05,0.015,-0.033,105.0,104.0,103.0,13.3,1505.2,335.4,-0.8,1.8,2471.382,13.29,0.052,286.7
2023-03-16T05:34:03,42.805,6.029,-0.044,0.011,-0.025,106.0,105.0,104.0,13.4,1505.2,333.9,-0.7,1.9,2471.362,13.29,0.045,284.0
2023-03-16T05:37:03,42.805,6.029,-0.069,0.048,-0.003,104.0,104.0,104.0,13.3,1505.2,332.0,-0.8,1.8,2471.34,13.29,0.084,304.8
2023-03-16T05:40:03,42.805,6.029,-0.055,-0.005,-0.026,104.0,105.0,104.0,13.4,1505.2,323.3,-0.8,1.8,2471.388,13.29,0.055,264.8
2023-03-16T05:43:03,42.805,6.029,-0.054,-0.009,0.002,105.0,103.0,103.0,13.3,1505.2,319.6,-0.7,1.8,2471.333,13.29,0.054,260.5
2023-03-16T05:46:03,42.805,6.029,-0.06,0.015,-0.013,104.0,104.0,102.0,13.4,1505.2,342.2,-0.7,1.8,2471.353,13.29,0.061,284.0
2023-03-16T05:49:03,42.805,6.029,-0.028,0.0,-0.009,104.0,105.0,103.0,13.3,1505.2,327.0,-0.7,1.8,2471.348,13.29,0.028,270.0
2023-03-16T05:52:03,42.805,6.029,-0.032,0.005,-0.015,105.0,104.0,102.0,13.3,1505.2,328.5,-0.7,1.9,2471.335,13.29,0.032,278.9
2023-03-16T05:55:03,42.805,6.029,-0.045,0.007,-0.056,104.0,104.0,104.0,13.3,1505.2,336.8,-0.8,1.8,2471.365,13.29,0.045,278.8
2023-03-16T05:58:03,42.805,6.029,-0.052,-0.002,-0.021,103.0,105.0,103.0,13.4,1505.2,324.6,-0.7,1.8,2471.391,13.29,0.052,267.8
2023-03-16T06:04:03,42.805,6.029,-0.034,-0.012,-0.033,104.0,103.0,102.0,13.4,1505.2,326.7,-0.8,1.8,2471.42,13.28,0.036,250.6
2023-03-16T06:07:03,42.805,6.029,-0.044,0.013,-0.028,103.0,103.0,103.0,13.4,1505.2,332.5,-0.8,1.8,2471.371,13.28,0.045,286.5
2023-03-16T06:10:03,42.805,6.029,-0.036,0.011,0.014,105.0,104.0,103.0,13.3,1505.2,330.2,-0.8,1.8,2471.388,13.28,0.037,287.0
2023-03-16T06:13:03,42.805,6.029,-0.029,0.006,-0.012,105.0,105.0,103.0,13.4,1505.2,322.1,-0.7,1.8,2471.385,13.29,0.029,281.7
2023-03-16T06:16:03,42.805,6.029,-0.038,0.011,-0.046,105.0,104.0,103.0,13.3,1505.2,340.3,-0.8,1.8,2471.361,13.29,0.039,286.1
2023-03-16T06:19:03,42.805,6.029,-0.034,0.007,-0.025,105.0,105.0,104.0,13.3,1505.2,331.6,-0.8,1.8,2471.403,13.29,0.034,281.6
2023-03-16T06:22:03,42.805,6.029,-0.045,0.007,-0.038,106.0,103.0,103.0,13.4,1505.2,327.1,-0.8,1.8,2471.355,13.29,0.045,278.8
2023-03-16T06:25:03,42.805,6.029,-0.045,0.014,-0.036,105.0,104.0,102.0,13.4,1505.2,318.6,-0.8,1.8,2471.34,13.29,0.047,287.3
2023-03-16T06:28:03,42.805,6.029,-0.038,0.001,-0.038,104.0,102.0,102.0,13.4,1505.2,334.4,-0.7,1.8,2471.346,13.29,0.038,271.5
2023-03-16T06:31:03,42.805,6.029,-0.063,0.015,-0.019,104.0,102.0,102.0,13.4,1505.2,331.6,-0.8,1.8,2471.329,13.29,0.064,283.4
2023-03-16T06:34:03,42.805,6.029,-0.017,-0.003,-0.005,104.0,104.0,102.0,13.3,1505.2,326.0,-0.8,1.8,2471.346,13.29,0.017,260.0
2023-03-16T06:37:03,42.805,6.029,-0.063,0.003,-0.009,105.0,102.0,102.0,13.4,1505.2,331.1,-0.8,1.8,2471.35,13.29,0.063,272.7
2023-03-16T06:40:03,42.805,6.029,-0.029,-0.014,-0.029,104.0,102.0,102.0,13.4,1505.2,315.5,-0.8,1.8,2471.302,13.29,0.032,244.2
2023-03-16T06:43:03,42.805,6.029,-0.05,0.016,-0.047,103.0,103.0,102.0,13.4,1505.2,335.3,-0.8,1.8,2471.346,13.29,0.052,287.7
2023-03-16T06:46:03,42.805,6.029,-0.038,0.019,-0.024,104.0,103.0,103.0,13.4,1505.2,330.1,-0.7,1.8,2471.33,13.29,0.042,296.6
2023-03-16T06:49:03,42.805,6.029,-0.026,0.009,-0.032,104.0,104.0,103.0,13.4,1505.2,338.7,-0.8,1.8,2471.34,13.29,0.027,289.1
2023-03-16T06:52:03,42.805,6.029,-0.038,0.011,-0.02,104.0,103.0,103.0,13.4,1505.2,333.0,-0.8,1.8,2471.329,13.29,0.039,286.1
2023-03-16T06:55:03,42.805,6.029,-0.053,-0.008,-0.045,104.0,105.0,102.0,13.4,1505.2,317.2,-0.8,1.9,2471.35,13.29,0.053,261.4
2023-03-16T06:58:03,42.805,6.029,-0.061,0.007,-0.046,104.0,103.0,103.0,13.4,1505.2,322.0,-0.8,1.8,2471.329,13.29,0.061,276.5
2023-03-16T07:04:03,42.805,6.029,-0.037,-0.018,-0.05,104.0,103.0,102.0,13.4,1505.2,325.7,-0.8,1.8,2471.399,13.28,0.041,244.1
2023-03-16T07:07:03,42.805,6.029,-0.02,0.002,-0.045,104.0,103.0,103.0,13.4,1505.2,340.4,-0.8,1.8,2471.404,13.28,0.02,275.7
2023-03-16T07:10:03,42.805,6.029,-0.045,0.002,-0.025,104.0,103.0,102.0,13.4,1505.2,324.0,-0.8,1.8,2471.384,13.28,0.045,272.5
2023-03-16T07:13:03,42.805,6.029,-0.029,0.007,-0.012,105.0,103.0,103.0,13.4,1505.2,324.2,-0.8,1.8,2471.366,13.29,0.029,283.6
2023-03-16T07:16:03,42.805,6.029,-0.032,-0.001,-0.026,104.0,103.0,103.0,13.4,1505.2,316.6,-0.8,1.8,2471.34,13.29,0.032,268.2
2023-03-16T07:19:03,42.805,6.029,-0.041,0.017,-0.029,103.0,102.0,102.0,13.4,1505.2,332.5,-0.8,1.8,2471.36,13.29,0.044,292.5
2023-03-16T07:22:03,42.805,6.029,-0.023,0.001,-0.005,104.0,101.0,102.0,13.4,1505.2,320.5,-0.7,1.8,2471.299,13.29,0.023,272.5
2023-03-16T07:25:03,42.805,6.029,-0.041,0.0,-0.027,104.0,104.0,103.0,13.3,1505.2,334.2,-0.8,1.8,2471.346,13.29,0.041,270.0
2023-03-16T07:28:03,42.805,6.029,-0.028,0.004,-0.037,105.0,103.0,103.0,13.3,1505.2,330.3,-0.8,1.8,2471.335,13.29,0.028,278.1
2023-03-16T07:31:03,42.805,6.029,-0.055,0.02,-0.034,103.0,102.0,102.0,13.4,1505.2,333.8,-0.8,1.8,2471.337,13.29,0.058,290.0
2023-03-16T07:34:03,42.805,6.029,-0.051,0.004,-0.028,103.0,103.0,102.0,13.3,1505.2,327.9,-0.7,1.8,2471.328,13.29,0.051,274.5
2023-03-16T07:37:03,42.805,6.029,-0.048,-0.012,-0.054,103.0,102.0,102.0,13.3,1505.2,321.5,-0.8,1.8,2471.362,13.29,0.049,256.0
2023-03-16T07:40:03,42.805,6.029,-0.045,0.008,0.002,103.0,103.0,102.0,13.4,1505.2,328.5,-0.8,1.8,2471.355,13.29,0.045,280.1
2023-03-16T07:43:03,42.805,6.029,-0.053,0.027,-0.014,103.0,103.0,103.0,13.3,1505.2,335.1,-0.7,1.8,2471.316,13.29,0.059,297.0
2023-03-16T07:46:03,42.805,6.029,-0.069,-0.009,-0.021,102.0,102.0,102.0,13.3,1505.2,319.8,-0.8,1.8,2471.329,13.29,0.069,262.6
2023-03-16T07:49:03,42.805,6.029,-0.045,0.0,-0.045,103.0,104.0,102.0,13.4,1505.2,332.9,-0.7,1.8,2471.343,13.29,0.045,270.0
2023-03-16T07:52:03,42.805,6.029,-0.049,-0.005,-0.029,103.0,102.0,103.0,13.4,1505.2,326.0,-0.8,1.8,2471.362,13.29,0.049,264.2
2023-03-16T07:55:03,42.805,6.029,-0.057,0.014,-0.012,103.0,102.0,101.0,13.4,1505.2,327.9,-0.8,1.8,2471.349,13.29,0.058,283.8
2023-03-16T07:58:03,42.805,6.029,-0.047,0.013,-0.032,102.0,103.0,103.0,13.4,1505.2,340.2,-0.7,1.8,2471.352,13.29,0.048,285.5
2023-03-16T08:04:03,42.805,6.029,-0.028,-0.007,-0.021,104.0,102.0,102.0,13.4,1505.2,315.0,-0.8,1.8,2471.365,13.28,0.028,256.0
2023-03-16T08:07:03,42.805,6.029,-0.043,-0.003,-0.021,104.0,102.0,101.0,13.3,1505.2,321.0,-0.7,1.8,2471.336,13.28,0.043,266.0
2023-03-16T08:10:03,42.805,6.029,-0.065,0.013,-0.025,102.0,102.0,103.0,13.3,1505.2,322.9,-0.8,1.9,2471.357,13.29,0.066,281.3
2023-03-16T08:13:03,42.805,6.029,-0.048,0.004,-0.027,105.0,101.0,101.0,13.4,1505.2,323.8,-0.8,1.8,2471.354,13.29,0.048,274.8
2023-03-16T08:16:03,42.805,6.029,-0.042,0.001,-0.052,104.0,102.0,102.0,13.4,1505.2,328.2,-0.8,1.8,2471.306,13.29,0.042,271.4
2023-03-16T08:19:03,42.805,6.029,-0.066,-0.001,-0.013,102.0,103.0,102.0,13.4,1505.2,317.9,-0.8,1.8,2471.347,13.29,0.066,269.1
2023-03-16T08:22:03,42.805,6.029,-0.033,0.018,0.024,103.0,102.0,103.0,13.4,1505.2,321.0,-0.8,1.9,2471.339,13.29,0.037,298.6
2023-03-16T08:25:03,42.805,6.029,-0.039,-0.004,-0.041,102.0,102.0,102.0,13.4,1505.2,325.5,-0.8,1.8,2471.341,13.29,0.039,264.1
2023-03-16T08:28:03,42.805,6.029,-0.062,-0.012,-0.055,103.0,101.0,101.0,13.4,1505.2,324.7,-0.8,1.8,2471.319,13.29,0.063,259.0
2023-03-16T08:31:03,42.805,6.029,-0.032,-0.006,-0.02,104.0,102.0,101.0,13.4,1505.2,320.0,-0.8,1.8,2471.314,13.29,0.032,259.4
2023-03-16T08:34:03,42.805,6.029,-0.062,0.006,-0.037,102.0,101.0,103.0,13.4,1505.2,325.0,-0.8,1.8,2471.319,13.29,0.062,275.5
2023-03-16T08:37:03,42.805,6.029,-0.043,-0.006,-0.038,102.0,102.0,102.0,13.4,1505.2,322.3,-0.8,1.8,2471.276,13.29,0.043,262.1
2023-03-16T08:40:03,42.805,6.029,-0.056,0.014,-0.016,103.0,102.0,102.0,13.3,1505.2,341.9,-0.7,1.8,2471.315,13.29,0.057,284.0
2023-03-16T08:43:03,42.805,6.029,-0.076,0.013,-0.05,103.0,101.0,102.0,13.3,1505.2,314.4,-0.8,1.8,2471.3,13.29,0.077,279.7
2023-03-16T08:46:03,42.805,6.029,-0.04,0.002,-0.029,102.0,103.0,102.0,13.4,1505.2,331.5,-0.7,1.8,2471.309,13.29,0.04,272.9
2023-03-16T08:49:03,42.805,6.029,-0.052,0.012,-0.023,105.0,102.0,102.0,13.3,1505.2,319.4,-0.8,1.8,2471.292,13.29,0.053,283.0
2023-03-16T08:52:03,42.805,6.029,-0.032,0.004,-0.025,102.0,103.0,102.0,13.4,1505.2,333.4,-0.8,1.8,2471.317,13.29,0.032,277.1
2023-03-16T08:55:03,42.805,6.029,-0.04,0.013,-0.017,104.0,103.0,103.0,13.4,1505.2,331.1,-0.8,1.8,2471.283,13.29,0.042,288.0
2023-03-16T08:58:03,42.805,6.029,-0.055,0.003,-0.043,104.0,102.0,102.0,13.4,1505.2,316.9,-0.7,1.8,2471.288,13.29,0.055,273.1
2023-03-16T09:04:03,42.805,6.029,-0.059,-0.002,-0.033,104.0,100.0,101.0,13.4,1505.2,317.8,-0.8,1.8,2471.334,13.28,0.059,268.1
2023-03-16T09:07:03,42.805,6.029,-0.042,0.027,-0.02,104.0,101.0,101.0,13.4,1505.2,323.7,-0.8,1.8,2471.374,13.28,0.049,302.7
2023-03-16T09:10:03,42.805,6.029,-0.021,0.0,-0.025,104.0,103.0,102.0,13.4,1505.2,327.6,-0.8,1.8,2471.344,13.28,0.021,270.0
2023-03-16T09:13:03,42.805,6.029,-0.022,0.0,-0.039,102.0,102.0,102.0,13.4,1505.2,333.9,-0.8,1.8,2471.326,13.29,0.022,270.0
2023-03-16T09:16:03,42.805,6.029,-0.033,0.006,-0.004,103.0,103.0,103.0,13.3,1505.2,325.7,-0.7,1.8,2471.322,13.29,0.033,280.3
2023-03-16T09:19:03,42.805,6.029,-0.05,0.01,-0.023,102.0,103.0,103.0,13.4,1505.2,327.1,-0.7,1.8,2471.323,13.29,0.05,281.3
2023-03-16T09:22:03,42.805,6.029,-0.052,0.021,-0.004,103.0,103.0,102.0,13.4,1505.2,330.5,-0.8,1.8,2471.331,13.29,0.056,292.0
2023-03-16T09:25:03,42.805,6.029,-0.046,0.022,-0.023,102.0,102.0,102.0,13.3,1505.2,332.6,-0.7,1.8,2471.304,13.29,0.05,295.6
2023-03-16T09:28:03,42.805,6.029,-0.079,-0.01,-0.059,102.0,101.0,102.0,13.4,1505.2,315.5,-0.8,1.8,2471.334,13.29,0.079,262.8
2023-03-16T09:31:03,42.805,6.029,-0.041,0.014,-0.029,101.0,102.0,102.0,13.4,1505.2,332.1,-0.8,1.8,2471.319,13.29,0.043,288.9
2023-03-16T09:34:03,42.805,6.029,-0.054,-0.002,-0.031,103.0,102.0,101.0,13.4,1505.2,321.2,-0.7,1.8,2471.332,13.29,0.054,267.9
2023-03-16T09:37:03,42.805,6.029,-0.029,-0.013,-0.031,103.0,102.0,102.0,13.4,1505.2,320.7,-0.7,1.8,2471.331,13.29,0.031,245.9
2023-03-16T09:40:03,42.805,6.029,-0.041,-0.019,-0.061,103.0,102.0,102.0,13.3,1505.2,323.6,-0.8,1.8,2471.321,13.29,0.045,245.1
2023-03-16T09:43:03,42.805,6.029,-0.043,-0.01,-0.036,104.0,102.0,103.0,13.4,1505.2,320.6,-0.7,1.8,2471.319,13.29,0.044,256.9
2023-03-16T09:46:03,42.805,6.029,-0.04,0.015,0.002,102.0,102.0,102.0,13.4,1505.2,325.3,-0.8,1.8,2471.318,13.29,0.042,290.6
2023-03-16T09:49:03,42.805,6.029,-0.027,0.024,-0.01,104.0,102.0,102.0,13.3,1505.2,339.6,-0.7,1.8,2471.317,13.29,0.036,311.6